Previsão horária em Almese

Hoje, 13 Abril, Terça-feira

Tempo Temperatura Precipitação Vento Pressão Humidade
00:00 -2°C° 0 mm 4 m/s 706 mmHg 75%
01:00 -1°C° 0 mm 3 m/s 706 mmHg 72%
02:00 -1°C° 0 mm 3 m/s 706 mmHg 68%
03:00 -2°C° 0 mm 3 m/s 706 mmHg 65%
04:00 -1°C° 0 mm 3 m/s 706 mmHg 62%
05:00 +1°C° 0 mm 2 m/s 706 mmHg 60%
06:00 +2°C° 0 mm 2 m/s 706 mmHg 53%
07:00 +4°C° 0 mm 2 m/s 706 mmHg 48%
08:00 +6°C° 0 mm 2 m/s 706 mmHg 43%
09:00 +8°C° 0 mm 2 m/s 707 mmHg 38%
10:00 +9°C° 0 mm 2 m/s 707 mmHg 38%
11:00 +9°C° 0 mm 2 m/s 707 mmHg 38%
12:00 +10°C° 0 mm 2 m/s 707 mmHg 39%
13:00 +10°C° 0 mm 2 m/s 707 mmHg 40%
14:00 +10°C° 0 mm 2 m/s 707 mmHg 40%
15:00 +10°C° 0 mm 2 m/s 706 mmHg 41%
16:00 +8°C° 0 mm 2 m/s 707 mmHg 54%
17:00 +8°C° 0 mm 1 m/s 707 mmHg 62%
18:00 +6°C° 0 mm 1 m/s 708 mmHg 69%
19:00 +5°C° 0 mm 1 m/s 708 mmHg 69%
20:00 +3°C° 0 mm 2 m/s 709 mmHg 69%
21:00 +2°C° 0 mm 2 m/s 709 mmHg 69%
22:00 +2°C° 0 mm 2 m/s 709 mmHg 69%
23:00 +3°C° 0 mm 1 m/s 709 mmHg 69%

Amanhã, 14 Abril, Quarta-feira

Tempo Temperatura Precipitação Vento Pressão Humidade
00:00 +3°C° 0 mm 1 m/s 709 mmHg 69%
01:00 +3°C° 0 mm 1 m/s 709 mmHg 70%
02:00 +2°C° 0 mm 1 m/s 709 mmHg 71%
03:00 +2°C° 0 mm 1 m/s 709 mmHg 72%
04:00 +3°C° 0 mm 1 m/s 709 mmHg 72%
05:00 +3°C° 0 mm 1 m/s 709 mmHg 73%
06:00 +2°C° 0 mm 0 m/s 709 mmHg 74%
07:00 +4°C° 0.1 mm 1 m/s 709 mmHg 74%
08:00 +5°C° 0.1 mm 1 m/s 709 mmHg 75%
09:00 +4°C° 0.1 mm 2 m/s 709 mmHg 76%
10:00 +5°C° 0 mm 2 m/s 708 mmHg 77%
11:00 +6°C° 0 mm 1 m/s 708 mmHg 78%
12:00 +7°C° 0 mm 1 m/s 708 mmHg 79%
13:00 +7°C° 0.1 mm 1 m/s 708 mmHg 77%
14:00 +7°C° 0.1 mm 1 m/s 707 mmHg 74%
15:00 +8°C° 0.1 mm 1 m/s 707 mmHg 72%
16:00 +7°C° 0.1 mm 1 m/s 707 mmHg 75%
17:00 +6°C° 0.1 mm 1 m/s 707 mmHg 79%
18:00 +5°C° 0.1 mm 1 m/s 707 mmHg 82%
19:00 +5°C° 0 mm 1 m/s 708 mmHg 83%
20:00 +4°C° 0 mm 1 m/s 708 mmHg 83%
21:00 +4°C° 0 mm 1 m/s 708 mmHg 83%
22:00 +3°C° 0 mm 1 m/s 708 mmHg 82%
23:00 +3°C° 0 mm 1 m/s 708 mmHg 81%

Depois de amanhã, 15 Abril, Quinta-feira

Tempo Temperatura Precipitação Vento Pressão Humidade
00:00 +3°C° 0 mm 1 m/s 708 mmHg 80%
01:00 +3°C° 0 mm 1 m/s 708 mmHg 81%
02:00 +3°C° 0 mm 1 m/s 708 mmHg 81%
03:00 +3°C° 0 mm 1 m/s 708 mmHg 82%
04:00 +3°C° 0.1 mm 1 m/s 708 mmHg 83%
05:00 +3°C° 0.1 mm 1 m/s 708 mmHg 84%
06:00 +3°C° 0.1 mm 1 m/s 708 mmHg 85%
07:00 +4°C° 0.6 mm 1 m/s 708 mmHg 84%
08:00 +4°C° 0.6 mm 1 m/s 708 mmHg 83%
09:00 +4°C° 0.6 mm 2 m/s 708 mmHg 82%
10:00 +5°C° 0.2 mm 1 m/s 708 mmHg 82%
11:00 +5°C° 0.2 mm 1 m/s 708 mmHg 82%
12:00 +6°C° 0.2 mm 1 m/s 707 mmHg 83%
13:00 +6°C° 0.1 mm 1 m/s 707 mmHg 79%
14:00 +7°C° 0.1 mm 1 m/s 707 mmHg 75%
15:00 +8°C° 0.1 mm 1 m/s 706 mmHg 71%
16:00 +7°C° 0.1 mm 1 m/s 706 mmHg 75%
17:00 +6°C° 0.1 mm 1 m/s 706 mmHg 79%
18:00 +5°C° 0.1 mm 1 m/s 706 mmHg 84%
19:00 +5°C° 0.1 mm 1 m/s 706 mmHg 85%
20:00 +5°C° 0.1 mm 1 m/s 707 mmHg 87%
21:00 +4°C° 0.1 mm 1 m/s 707 mmHg 88%
22:00 +4°C° 0.1 mm 1 m/s 707 mmHg 88%
23:00 +4°C° 0.1 mm 1 m/s 707 mmHg 88%

16 Abril, Sexta-feira

Tempo Temperatura Precipitação Vento Pressão Humidade
00:00 +4°C° 0.1 mm 1 m/s 707 mmHg 88%
01:00 +4°C° 0.2 mm 1 m/s 707 mmHg 90%
02:00 +4°C° 0.2 mm 1 m/s 706 mmHg 91%
03:00 +4°C° 0.2 mm 1 m/s 706 mmHg 93%
04:00 +4°C° 0.5 mm 1 m/s 706 mmHg 93%
05:00 +3°C° 0.5 mm 1 m/s 706 mmHg 93%
06:00 +3°C° 0.5 mm 1 m/s 706 mmHg 93%
07:00 +4°C° 0.3 mm 1 m/s 707 mmHg 88%
08:00 +4°C° 0.3 mm 2 m/s 707 mmHg 84%
09:00 +5°C° 0.3 mm 2 m/s 707 mmHg 80%
10:00 +6°C° 0.2 mm 2 m/s 707 mmHg 77%
11:00 +6°C° 0.2 mm 2 m/s 706 mmHg 74%
12:00 +8°C° 0.2 mm 1 m/s 706 mmHg 71%
13:00 +8°C° 0.2 mm 1 m/s 706 mmHg 70%
14:00 +8°C° 0.2 mm 1 m/s 706 mmHg 69%
15:00 +8°C° 0.2 mm 1 m/s 705 mmHg 68%
16:00 +8°C° 0.1 mm 1 m/s 705 mmHg 72%
17:00 +7°C° 0.1 mm 1 m/s 705 mmHg 75%
18:00 +6°C° 0.1 mm 1 m/s 705 mmHg 78%
19:00 +5°C° 0 mm 1 m/s 706 mmHg 79%
20:00 +5°C° 0 mm 1 m/s 706 mmHg 80%
21:00 +3°C° 0 mm 2 m/s 707 mmHg 81%
22:00 +3°C° 0 mm 2 m/s 706 mmHg 80%
23:00 +2°C° 0 mm 2 m/s 706 mmHg 80%

17 Abril, Sábado

Tempo Temperatura Precipitação Vento Pressão Humidade
00:00 +2°C° 0 mm 2 m/s 706 mmHg 80%
01:00 +2°C° 0 mm 2 m/s 706 mmHg 79%
02:00 +2°C° 0 mm 2 m/s 706 mmHg 78%
03:00 +2°C° 0 mm 2 m/s 706 mmHg 78%
04:00 +2°C° 0 mm 2 m/s 705 mmHg 77%
05:00 +4°C° 0 mm 1 m/s 705 mmHg 76%
06:00 +4°C° 0 mm 1 m/s 705 mmHg 75%
07:00 +6°C° 0 mm 1 m/s 705 mmHg 70%
08:00 +8°C° 0 mm 1 m/s 705 mmHg 65%
09:00 +9°C° 0 mm 1 m/s 705 mmHg 60%
10:00 +10°C° 0 mm 1 m/s 705 mmHg 57%
11:00 +11°C° 0 mm 1 m/s 704 mmHg 54%
12:00 +10°C° 0 mm 2 m/s 704 mmHg 52%
13:00 +12°C° 0.1 mm 2 m/s 704 mmHg 52%
14:00 +12°C° 0.1 mm 2 m/s 704 mmHg 53%
15:00 +12°C° 0.1 mm 2 m/s 703 mmHg 53%
16:00 +10°C° 0.2 mm 1 m/s 703 mmHg 60%
17:00 +9°C° 0.2 mm 1 m/s 703 mmHg 66%
18:00 +8°C° 0.2 mm 1 m/s 703 mmHg 73%
19:00 +7°C° 0.2 mm 1 m/s 704 mmHg 75%
20:00 +7°C° 0.2 mm 1 m/s 704 mmHg 76%
21:00 +6°C° 0.2 mm 1 m/s 704 mmHg 78%
22:00 +5°C° 0 mm 1 m/s 705 mmHg 78%
23:00 +5°C° 0 mm 1 m/s 705 mmHg 79%

18 Abril, Domingo

Tempo Temperatura Precipitação Vento Pressão Humidade
00:00 +4°C° 0 mm 2 m/s 705 mmHg 80%
01:00 +3°C° 0 mm 2 m/s 705 mmHg 80%
02:00 +4°C° 0 mm 1 m/s 705 mmHg 80%
03:00 +4°C° 0 mm 1 m/s 705 mmHg 80%
04:00 +4°C° 0 mm 1 m/s 705 mmHg 81%
05:00 +5°C° 0 mm 1 m/s 705 mmHg 82%
06:00 +5°C° 0 mm 1 m/s 705 mmHg 83%
07:00 +6°C° 0.3 mm 1 m/s 705 mmHg 84%
08:00 +6°C° 0.3 mm 1 m/s 705 mmHg 86%
09:00 +5°C° 0.3 mm 2 m/s 705 mmHg 87%
10:00 +7°C° 0.2 mm 1 m/s 705 mmHg 86%
11:00 +7°C° 0.2 mm 1 m/s 705 mmHg 85%
12:00 +7°C° 0.2 mm 1 m/s 705 mmHg 84%
13:00 +8°C° 0.2 mm 1 m/s 705 mmHg 81%
14:00 +9°C° 0.2 mm 1 m/s 705 mmHg 77%
15:00 +10°C° 0.2 mm 1 m/s 704 mmHg 73%
16:00 +9°C° 0.3 mm 1 m/s 704 mmHg 76%
17:00 +8°C° 0.3 mm 1 m/s 704 mmHg 78%
18:00 +6°C° 0.3 mm 0 m/s 704 mmHg 81%
19:00 +7°C° 0.1 mm 1 m/s 705 mmHg 81%
20:00 +6°C° 0.1 mm 1 m/s 705 mmHg 82%
21:00 +4°C° 0.1 mm 2 m/s 705 mmHg 82%
22:00 +4°C° 0 mm 2 m/s 705 mmHg 81%
23:00 +3°C° 0 mm 2 m/s 705 mmHg 80%
Mostrar mais

Necessitamos do seu Consentimento

A Meteoprog e os seus Fornecedores de Serviços podem armazenar e aceder a dados pessoais como cookies, identificadores do dispositivo ou outras tecnologias semelhantes existentes no seu dispositivo e processar estes dados para personalizar conteúdos e anúncios, assim como funcionalidades nas redes sociais e análise de tráfego.

  • Armazenar e/ou aceder a informações no seu dispositivo

    Os cookies, identificadores do dispositivo ou outras informações podem ser armazenados ou acedidos no seu dispositivo, para os fins acima indicados.

  • Anúncios e conteúdos personalizados, medição de anúncios e conteúdos, dados sobre o público-alvo e desenvolvimento de produtos

    Os anúncios e os conteúdos podem ser personalizados com base num perfil. Podem ser adicionados dados adicionais para uma maior personalização dos anúncios e dos conteúdos. A eficácia dos anúncios e dos conteúdos pode ser medida. Podem ser obtidas informações sobre o público que visualizou os anúncios e os conteúdos. Estes dados podem ser usados para desenvolver ou melhorar sistemas, softwares ou a experiência do utilizador.

Ao clicar em "Eu concordo”, permitirá o uso de cookies, identificadores do dispositivo e web beacons mencionados ou outras tecnologias semelhantes. As configurações do navegador do seu dispositivo podem ser alteradas.

Para certos fins, podem ser invocados interesses legítimos ao invés de consentimento. Pode ler mais informação sobre este assunto na nossa Política de Privacidade e Cookies.